TimeMST,TemperatureF,Dew PointF,Humidity,Sea Level PressureIn,VisibilityMPH,Wind Direction,Wind SpeedMPH,Gust SpeedMPH,PrecipitationIn,Events,Conditions,WindDirDegrees,DateUTC
12:56 AM,1.0,-4.0,79,30.44,4.0,South,4.6,-,N/A,,Haze,170,2013-01-14 07:56:00
1:20 AM,-2.2,-5.8,85,30.16,5.0,SSE,4.6,-,0.00,,Overcast,160,2013-01-14 08:20:00
1:56 AM,-2.0,-7.1,79,30.46,7.0,South,4.6,-,0.00,,Overcast,170,2013-01-14 08:56:00
2:20 AM,-2.2,-7.6,78,30.18,7.0,South,4.6,-,N/A,,Scattered Clouds,180,2013-01-14 09:20:00
2:56 AM,-7.1,-11.0,83,30.49,7.0,Calm,Calm,-,N/A,,Scattered Clouds,0,2013-01-14 09:56:00
3:56 AM,-8.0,-13.0,79,30.50,8.0,SSW,3.5,-,N/A,,Clear,210,2013-01-14 10:56:00
4:56 AM,-9.9,-14.1,82,30.50,10.0,SE,3.5,-,N/A,,Clear,140,2013-01-14 11:56:00
5:56 AM,-8.0,-13.0,79,30.49,10.0,SSE,3.5,-,N/A,,Partly Cloudy,150,2013-01-14 12:56:00
6:56 AM,-11.0,-17.0,75,30.51,10.0,SSW,3.5,-,N/A,,Clear,200,2013-01-14 13:56:00
7:56 AM,-8.0,-14.1,75,30.49,10.0,South,4.6,-,N/A,,Clear,170,2013-01-14 14:56:00
8:56 AM,-9.0,-14.1,79,30.49,10.0,South,3.5,-,N/A,,Clear,170,2013-01-14 15:56:00
9:56 AM,-4.0,-9.0,79,30.47,8.0,West,4.6,-,N/A,,Clear,260,2013-01-14 16:56:00
10:56 AM,-0.0,-4.0,83,30.46,7.0,Calm,Calm,-,N/A,,Clear,0,2013-01-14 17:56:00
11:56 AM,-0.0,-5.1,79,30.42,8.0,SE,3.5,-,N/A,,Overcast,140,2013-01-14 18:56:00
12:56 PM,3.0,-4.0,73,30.38,2.5,East,3.5,-,0.00,Snow,Light Snow,100,2013-01-14 19:56:00
1:31 PM,3.2,-2.2,78,30.08,4.0,Calm,Calm,-,0.00,,Haze,0,2013-01-14 20:31:00
1:56 PM,5.0,-2.0,73,30.37,7.0,Calm,Calm,-,0.00,,Overcast,0,2013-01-14 20:56:00
2:56 PM,6.1,-0.9,73,30.41,2.0,Calm,Calm,-,0.00,Snow,Light Snow,0,2013-01-14 21:56:00
3:03 PM,6.8,-0.4,72,30.11,1.5,Calm,Calm,-,0.00,Snow,Light Snow,0,2013-01-14 22:03:00
3:29 PM,6.8,-0.4,72,30.11,2.5,SE,5.8,-,0.00,Snow,Light Snow,140,2013-01-14 22:29:00
3:37 PM,6.8,-0.4,72,30.10,5.0,SE,5.8,-,0.00,Snow,Light Snow,140,2013-01-14 22:37:00
3:56 PM,6.1,-0.0,76,30.40,10.0,SE,3.5,-,0.00,,Overcast,130,2013-01-14 22:56:00
4:56 PM,7.0,-0.0,73,30.42,10.0,Calm,Calm,-,0.00,,Overcast,0,2013-01-14 23:56:00
5:56 PM,7.0,1.0,77,30.40,10.0,Calm,Calm,-,N/A,,Overcast,0,2013-01-15 00:56:00
6:56 PM,7.0,1.0,77,30.43,5.0,ENE,3.5,-,0.00,Snow,Light Snow,70,2013-01-15 01:56:00
7:56 PM,7.0,1.9,80,30.43,8.0,Calm,Calm,-,0.00,Snow,Light Snow,0,2013-01-15 02:56:00
8:56 PM,8.1,3.0,80,30.44,5.0,Calm,Calm,-,0.00,Snow,Light Snow,0,2013-01-15 03:56:00
9:56 PM,9.0,3.0,77,30.42,9.0,Calm,Calm,-,0.00,Snow,Light Snow,0,2013-01-15 04:56:00
10:56 PM,9.0,3.0,77,30.42,8.0,Calm,Calm,-,0.00,,Overcast,0,2013-01-15 05:56:00
11:56 PM,10.4,5.0,79,30.17,9.0,Calm,Calm,-,N/A,Snow,Light Snow,0,2013-01-15 06:56:00